When you browse on this site, cookies collect data to enhance your experience and personalize the content and advertising you see.
Visit our Privacy Policy to learn more. By continuing to use the site, you agree to this use of cookies and data.
  • In Austria
  • List of Countries
  • For 7 days
  • Water Temperature
  • Satellite Maps
  • Weather Map
  • News
  • Weather Widgets
  • user-avatar
    Login

    Hourly Weather Dhaka

    Today, 20 April, Saturday

    Time Temperature Precipitation Wind Pressure Humidity
    00:00 +31°C° 0 mm 2 mps 754 mmHg 44%
    01:00 +31°C° 0 mm 2 mps 753 mmHg 44%
    02:00 +30°C° 0 mm 2 mps 753 mmHg 44%
    03:00 +30°C° 0 mm 2 mps 753 mmHg 45%
    04:00 +30°C° 0 mm 2 mps 753 mmHg 44%
    05:00 +30°C° 0 mm 2 mps 753 mmHg 44%
    06:00 +29°C° 0 mm 3 mps 754 mmHg 40%
    07:00 +31°C° 0 mm 3 mps 754 mmHg 37%
    08:00 +34°C° 0 mm 3 mps 754 mmHg 34%
    09:00 +35°C° 0 mm 3 mps 755 mmHg 30%
    10:00 +37°C° 0 mm 3 mps 754 mmHg 27%
    11:00 +38°C° 0 mm 3 mps 754 mmHg 25%
    12:00 +39°C° 0 mm 3 mps 754 mmHg 22%
    13:00 +39°C° 0 mm 3 mps 753 mmHg 22%
    14:00 +39°C° 0 mm 3 mps 753 mmHg 21%
    15:00 +39°C° 0 mm 3 mps 752 mmHg 21%
    16:00 +39°C° 0 mm 3 mps 752 mmHg 22%
    17:00 +38°C° 0 mm 2 mps 752 mmHg 24%
    18:00 +37°C° 0 mm 2 mps 751 mmHg 26%
    19:00 +36°C° 0 mm 2 mps 752 mmHg 27%
    20:00 +35°C° 0 mm 2 mps 752 mmHg 28%
    21:00 +34°C° 0 mm 3 mps 752 mmHg 29%
    22:00 +34°C° 0 mm 2 mps 752 mmHg 30%
    23:00 +32°C° 0 mm 2 mps 753 mmHg 32%

    Tomorrow, 21 April, Sunday

    Time Temperature Precipitation Wind Pressure Humidity
    00:00 +31°C° 0 mm 2 mps 753 mmHg 33%
    01:00 +31°C° 0 mm 2 mps 752 mmHg 35%
    02:00 +31°C° 0 mm 2 mps 752 mmHg 38%
    03:00 +30°C° 0 mm 2 mps 752 mmHg 41%
    04:00 +30°C° 0 mm 2 mps 752 mmHg 44%
    05:00 +30°C° 0 mm 2 mps 752 mmHg 47%
    06:00 +29°C° 0 mm 2 mps 752 mmHg 50%
    07:00 +31°C° 0 mm 2 mps 753 mmHg 45%
    08:00 +34°C° 0 mm 2 mps 753 mmHg 40%
    09:00 +36°C° 0 mm 2 mps 754 mmHg 35%
    10:00 +38°C° 0 mm 2 mps 754 mmHg 30%
    11:00 +39°C° 0 mm 2 mps 754 mmHg 26%
    12:00 +40°C° 0 mm 2 mps 753 mmHg 21%
    13:00 +40°C° 0 mm 2 mps 753 mmHg 21%
    14:00 +40°C° 0 mm 2 mps 752 mmHg 22%
    15:00 +40°C° 0 mm 2 mps 751 mmHg 22%
    16:00 +39°C° 0 mm 1 mps 751 mmHg 23%
    17:00 +37°C° 0 mm 1 mps 751 mmHg 25%
    18:00 +36°C° 0 mm 1 mps 751 mmHg 26%
    19:00 +35°C° 0 mm 1 mps 751 mmHg 26%
    20:00 +35°C° 0 mm 1 mps 752 mmHg 27%
    21:00 +34°C° 0 mm 1 mps 752 mmHg 27%
    22:00 +34°C° 0 mm 2 mps 752 mmHg 31%
    23:00 +33°C° 0 mm 3 mps 752 mmHg 35%

    Day after tomorrow, 22 April, Monday

    Time Temperature Precipitation Wind Pressure Humidity
    00:00 +33°C° 0 mm 3 mps 752 mmHg 39%
    01:00 +31°C° 0 mm 3 mps 752 mmHg 40%
    02:00 +31°C° 0 mm 3 mps 752 mmHg 42%
    03:00 +31°C° 0 mm 3 mps 751 mmHg 44%
    04:00 +30°C° 0 mm 3 mps 752 mmHg 46%
    05:00 +30°C° 0 mm 2 mps 752 mmHg 48%
    06:00 +30°C° 0 mm 1 mps 753 mmHg 50%
    07:00 +32°C° 0 mm 1 mps 753 mmHg 46%
    08:00 +34°C° 0 mm 1 mps 754 mmHg 41%
    09:00 +36°C° 0 mm 1 mps 754 mmHg 37%
    10:00 +37°C° 0 mm 1 mps 754 mmHg 33%
    11:00 +39°C° 0 mm 1 mps 754 mmHg 29%
    12:00 +41°C° 0 mm 1 mps 753 mmHg 26%
    13:00 +41°C° 0 mm 1 mps 753 mmHg 25%
    14:00 +40°C° 0 mm 1 mps 752 mmHg 25%
    15:00 +40°C° 0 mm 1 mps 751 mmHg 24%
    16:00 +39°C° 0.1 mm 2 mps 751 mmHg 27%
    17:00 +38°C° 0.1 mm 3 mps 751 mmHg 30%
    18:00 +37°C° 0.1 mm 4 mps 751 mmHg 33%
    19:00 +36°C° 0 mm 4 mps 752 mmHg 35%
    20:00 +35°C° 0 mm 3 mps 753 mmHg 38%
    21:00 +34°C° 0 mm 3 mps 753 mmHg 41%
    22:00 +33°C° 0.7 mm 3 mps 753 mmHg 44%
    23:00 +32°C° 0.7 mm 2 mps 753 mmHg 48%

    23 April, Tuesday

    Time Temperature Precipitation Wind Pressure Humidity
    00:00 +31°C° 0.7 mm 1 mps 754 mmHg 51%
    01:00 +31°C° 0 mm 1 mps 753 mmHg 50%
    02:00 +31°C° 0 mm 1 mps 753 mmHg 48%
    03:00 +32°C° 0 mm 1 mps 753 mmHg 46%
    04:00 +31°C° 0 mm 1 mps 753 mmHg 49%
    05:00 +30°C° 0 mm 1 mps 753 mmHg 52%
    06:00 +29°C° 0 mm 1 mps 753 mmHg 55%
    07:00 +31°C° 0 mm 2 mps 754 mmHg 50%
    08:00 +34°C° 0 mm 2 mps 755 mmHg 45%
    09:00 +36°C° 0 mm 3 mps 755 mmHg 40%
    10:00 +37°C° 0 mm 2 mps 755 mmHg 36%
    11:00 +39°C° 0 mm 2 mps 755 mmHg 32%
    12:00 +40°C° 0 mm 2 mps 754 mmHg 28%
    13:00 +41°C° 0 mm 1 mps 753 mmHg 26%
    14:00 +41°C° 0 mm 1 mps 753 mmHg 23%
    15:00 +42°C° 0 mm 1 mps 752 mmHg 21%
    16:00 +40°C° 0 mm 3 mps 752 mmHg 26%
    17:00 +39°C° 0 mm 5 mps 752 mmHg 30%
    18:00 +38°C° 0 mm 7 mps 752 mmHg 35%
    19:00 +35°C° 1.4 mm 6 mps 753 mmHg 40%
    20:00 +34°C° 1.4 mm 6 mps 753 mmHg 45%
    21:00 +33°C° 1.4 mm 5 mps 754 mmHg 50%
    22:00 +33°C° 0.1 mm 5 mps 754 mmHg 47%
    23:00 +33°C° 0.1 mm 4 mps 754 mmHg 44%

    24 April, Wednesday

    Time Temperature Precipitation Wind Pressure Humidity
    00:00 +34°C° 0.1 mm 4 mps 754 mmHg 41%
    01:00 +33°C° 0 mm 3 mps 754 mmHg 44%
    02:00 +32°C° 0 mm 2 mps 754 mmHg 46%
    03:00 +31°C° 0 mm 2 mps 753 mmHg 49%
    04:00 +31°C° 0 mm 2 mps 754 mmHg 51%
    05:00 +30°C° 0 mm 2 mps 754 mmHg 54%
    06:00 +29°C° 0 mm 3 mps 754 mmHg 56%
    07:00 +31°C° 0 mm 3 mps 755 mmHg 52%
    08:00 +34°C° 0 mm 3 mps 756 mmHg 48%
    09:00 +36°C° 0 mm 3 mps 756 mmHg 44%
    10:00 +37°C° 0 mm 3 mps 756 mmHg 39%
    11:00 +38°C° 0 mm 2 mps 756 mmHg 35%
    12:00 +40°C° 0 mm 2 mps 755 mmHg 31%
    13:00 +40°C° 0 mm 2 mps 754 mmHg 29%
    14:00 +41°C° 0 mm 2 mps 753 mmHg 27%
    15:00 +41°C° 0 mm 2 mps 752 mmHg 25%
    16:00 +41°C° 0 mm 2 mps 752 mmHg 27%
    17:00 +40°C° 0 mm 1 mps 752 mmHg 28%
    18:00 +39°C° 0 mm 1 mps 752 mmHg 30%
    19:00 +38°C° 0.1 mm 2 mps 753 mmHg 33%
    20:00 +37°C° 0.1 mm 3 mps 753 mmHg 36%
    21:00 +36°C° 0.1 mm 4 mps 754 mmHg 39%
    22:00 +35°C° 0 mm 4 mps 754 mmHg 43%
    23:00 +34°C° 0 mm 3 mps 754 mmHg 47%

    25 April, Thursday

    Time Temperature Precipitation Wind Pressure Humidity
    00:00 +33°C° 0 mm 3 mps 754 mmHg 50%
    01:00 +33°C° 0 mm 3 mps 753 mmHg 52%
    02:00 +31°C° 0 mm 2 mps 753 mmHg 54%
    03:00 +31°C° 0 mm 2 mps 753 mmHg 56%
    04:00 +30°C° 0.1 mm 2 mps 754 mmHg 58%
    05:00 +30°C° 0.1 mm 2 mps 754 mmHg 61%
    06:00 +30°C° 0.1 mm 1 mps 755 mmHg 63%
    07:00 +31°C° 0 mm 1 mps 755 mmHg 57%
    08:00 +34°C° 0 mm 2 mps 756 mmHg 52%
    09:00 +35°C° 0 mm 2 mps 756 mmHg 46%
    10:00 +37°C° 0 mm 2 mps 756 mmHg 40%
    11:00 +39°C° 0 mm 2 mps 755 mmHg 34%
    12:00 +40°C° 0 mm 2 mps 755 mmHg 28%
    13:00 +42°C° 0 mm 3 mps 754 mmHg 26%
    14:00 +43°C° 0 mm 3 mps 753 mmHg 24%
    15:00 +43°C° 0 mm 3 mps 752 mmHg 22%
    16:00 +43°C° 0 mm 3 mps 752 mmHg 24%
    17:00 +42°C° 0 mm 3 mps 752 mmHg 26%
    18:00 +40°C° 0 mm 3 mps 752 mmHg 27%
    19:00 +40°C° 0 mm 4 mps 752 mmHg 30%
    20:00 +38°C° 0 mm 4 mps 753 mmHg 32%
    21:00 +36°C° 0 mm 5 mps 753 mmHg 34%
    22:00 +35°C° 0 mm 4 mps 753 mmHg 38%
    23:00 +34°C° 0 mm 4 mps 753 mmHg 42%
    Show more